Regional Weather Roundup
Issued by NWS

Home | Current Version | Previous Version | Graphics & Text | Print | Product List | Glossary On
Versions: 1 2 3 4 5 6 7 8 9 10 11 12 13 14 15 16 17 18 19 20 21 22 23 24 25 26 27 28
000
ASUS45 KBOU 151210
RWRCO

WEATHER ROUNDUP FOR COLORADO
NATIONAL WEATHER SERVICE DENVER/BOULDER CO
500 AM MST MON JAN 15 2018

NOTE: "FAIR" INDICATES FEW OR NO CLOUDS BELOW 12000 FEET WITH NO
SIGNIFICANT WEATHER AND/OR OBSTRUCTIONS TO VISIBILITY.

COZ001>005-013-030-031-151300-
...NORTHWEST COLORADO...

CITY           SKY/WX    TMP DP  RH WIND       PRES   REMARKS
CRAIG          FAIR      11   7  84 CALM      30.28S
HAYDEN         FAIR      15  11  83 SE8       30.27S WCI   4
MEEKER         FAIR      20  16  84 NE3       30.27S
RABBIT EARS PA CLOUDY    19  18  93 W7        30.22S WCI  10
STEAMBOAT SPGS FAIR      10   7  89 CALM      30.26S
WALDEN         CLOUDY    21  14  73 NW3       30.23S
$$

COZ006>008-011-151300-
...WEST CENTRAL VALLEYS...

CITY           SKY/WX    TMP DP  RH WIND       PRES   REMARKS
GRAND JUNCTION FAIR      27  23  85 E8        30.27S WCI  19
MONTROSE       FAIR      20  14  77 SE8       30.29S WCI  10
EAGLE          FAIR      15  10  80 CALM      30.31R
RIFLE          FAIR      22  20  92 CALM      30.29F
DELTA          FAIR      21  19  90 CALM      30.29R
NUCLA          FAIR      23  16  74 SE7       30.31S WCI  15
$$

COZ017>023-064>068-151300-
...SOUTHWEST COLORADO...

CITY           SKY/WX    TMP DP  RH WIND       PRES   REMARKS
DURANGO        FAIR      16  13  88 CALM      30.24F
CORTEZ         FAIR      18  16  92 NE6       30.25F WCI  10
PAGOSA SPRINGS FAIR      19  17  90 CALM      30.25S
TELLURIDE      FAIR      26   0  32 SE7       30.29S WCI  18
WOLF CREEK PAS FAIR      23  -2  33 SW7       30.33S WCI  15
$$

COZ009-010-012-014-032>034-037-058>063-151300-
...CENTRAL COLORADO...

CITY           SKY/WX    TMP DP  RH WIND       PRES   REMARKS
ASPEN          FAIR      12   6  77 S7        30.23F WCI   1
BUENA VISTA    FAIR      14   1  56 NW5       30.19S WCI   7
COPPER MTN     NOT AVBL
BERTHOUD PASS  FAIR      10   0  61 NW35      30.17S WCI -13
COTTONWOOD PAS NOT AVBL
GUNNISON       FAIR       1  -1  91 CALM      30.30F
KREMMLING      NOT AVBL
LEADVILLE      FAIR      18   0  45 E6        30.20F WCI  10
MONARCH PASS   FAIR      18   3  53 W35       30.31F WCI  -3
SALIDA         FAIR      20   0  40 CALM      30.25F
SUNLIGHT       FAIR      21   7  53 W8        30.30F WCI  12
WILKERSON PASS FAIR      23  -8  25 SW7       30.21F WCI  15
$$

COZ069>075-151300-
...SAN LUIS VALLEY/SANGRE DE CRISTO MOUNTAINS...

CITY           SKY/WX    TMP DP  RH WIND       PRES   REMARKS
ALAMOSA        FAIR       3  -1  83 CALM      30.23S
DEL NORTE      FAIR      22  -2  34 W10       30.23F WCI  11
LA VETA PASS   FAIR      27   7  43 SW12        N/A  WCI  16
SAGUACHE       FAIR      16   3  57 NW9       30.22F WCI   4
$$

COZ035-036-038>040-151300-
...NORTHERN COLORADO FRONT RANGE...

CITY           SKY/WX    TMP DP  RH WIND       PRES   REMARKS
DENVER INTL AP FRZ DRZL  24  21  88 E12       30.31R FOG     WCI  13
DMNS CITY PARK NOT AVBL
AURORA         FRZ DRZL  23  23  99 NE13      30.31R WCI  12
FRONT RANGE AP MIX PCPN  27  25  92 NE12      30.33R WCI  17
ERIE MUNI ARPT CLOUDY    27  22  84 E8        30.39R WCI  18
BOULDER MUN AP CLOUDY    27  23  86 NE6       30.33R WCI  20
CENTENNIAL     FRZ DRZL  25  24  96 E12       30.29R FOG     WCI  14
BROOMFIELD     CLOUDY    27  25  93 NE16      30.31R FOG     WCI  14
FORT COLLINS   FLURRIES  27  22  81 NE9       30.35R WCI  18
LONGMONT       CLOUDY    29  23  79 NE7       30.36R WCI  22
$$

COZ041-046-047-076>085-087-088-151300-
...PIKES PEAK/PALMER DIVIDE AND SOUTHERN FOOTHILLS...

CITY           SKY/WX    TMP DP  RH WIND       PRES   REMARKS
COLO. SPRINGS  MOCLDY    30  23  75 NE12      30.27R WCI  20
A. F. ACADEMY  CLOUDY    27  23  83 N9        30.25R WCI  18
SCHRIEVER AFB  MOCLDY    27  25  93 NE13G20   30.27R WCI  16
CHEYENNE MTN   MOCLDY    25  22  88 N7        30.19S WCI  17
ELLICOTT       CLOUDY   N/A N/A N/A NE14      30.25R
FALCON         CLOUDY    25  24  95 NE7       30.26R WCI  17
FORT CARSON    FAIR      22  19  88 N8        30.25R WCI  12
LIMON          CLOUDY    25  23  92 N17       30.29R WCI  12
MONUMENT HILL  FOG       23  21  93 NE9       30.26R VSB 1/4 WCI  13
CANON CITY     CLOUDY    32  23  69 N7        30.27S WCI  26
WALSENBURG     CLOUDY    28  25  86 CALM      30.30S
TRINIDAD       MOCLDY    26  22  84 N12       30.30R WCI  16
$$

COZ042>045-048>051-090-091-151300-
...NORTHEAST COLORADO...

CITY           SKY/WX    TMP DP  RH WIND       PRES   REMARKS
GREELEY ARPT   FLURRIES  24  21  88 NE12      30.38R WCI  13
AKRON          FLURRIES  21  19  92 N9        30.34R WCI  11
BURLINGTON     CLOUDY    23  21  92 N15       30.32R WCI  10
WRAY           CLOUDY    19   5  53 N15G21    30.41R WCI   5
YUMA           LGT SNOW  18  16  93 CALM      30.37R
STERLING       CLOUDY    21  19  93 NE6       30.38R WCI  14
HOLYOKE        MOCLDY    19   9  63 N13       30.41R WCI   7
FORT MORGAN    CLOUDY    19   8  62 N8        30.38R WCI   9
$$

COZ086-089-092>099-151300-
...SOUTHEAST COLORADO...

CITY           SKY/WX    TMP DP  RH WIND       PRES   REMARKS
PUEBLO         CLOUDY    27  22  81 CALM      30.31R
LA JUNTA       CLOUDY    29  23  78 CALM      30.32R
LAMAR          CLOUDY    30  24  78 NE15      30.32R WCI  19
SPRINGFIELD      N/A     28  27  96 NE22G35   30.26R WCI  14
$$




USA.gov is the U.S. government's official web portal to all federal, state and local government web resources and services.